QPF
0.00 0.00 0.00 0.00 0.00 0.00 0.00 0.00 0.00 0.00 0.00 0.00 0.00 0.00 0.00 0.00 0.00 0.00 0.00 0.00 0.00 0.00 0.00 0.00 0.00 0.00 0.00 0.00 0.00 0.00 0.00 0.00 0.00 0.00 0.00 0.00 0.00 0.00 0.00 0.00 0.00 0.00 0.00 0.00
0.00 0.00 0.00 0.00 0.00 0.00 0.00 0.00 0.00 0.00 0.00 0.00 0.00 0.00 0.00 0.00 0.00 0.00 0.00 0.00 0.00 0.00 0.00 0.00 0.00 0.00 0.00 0.00 0.00 0.00 0.00 0.00 0.00 0.00 0.00 0.00 0.00 0.00 0.00 0.00 0.00 0.00 0.00 0.00
0.00 0.00 0.00 0.00 0.00 0.00 0.00 0.00 0.00 0.00 0.00 0.00 0.00 0.02 0.01 0.02 0.01 0.00 0.00 0.00 0.00 0.00 0.00 0.00 0.00 0.00 0.00 0.00 0.00 0.00 0.00 0.00 0.00 0.00 0.00 0.00 0.00 0.00 0.00 0.00 0.00 0.00 0.00 0.00
0.00 0.00 0.00 0.00 0.00 0.00 0.00 0.00 0.00 0.00 0.00 0.00 0.00 0.01 0.00 0.00 0.00 0.00 0.00 0.00 0.00 0.00 0.00 0.00 0.00 0.00 0.00 0.00 0.00 0.00 0.00 0.00 0.00 0.00 0.00 0.00 0.00 0.00 0.00 0.00 0.00 0.00 0.00 0.00
0.00 0.00 0.00 0.00 0.00 0.00 0.00 0.00 0.00 0.00 0.00 0.00 0.00 0.00 0.00 0.00 0.00 0.00 0.00 0.00 0.00 0.00 0.00 0.00 0.00 0.00 0.00 0.00 0.00 0.00 0.00 0.00 0.00 0.00 0.00 0.00 0.00 0.00 0.00 0.00 0.00 0.00 0.00 0.00
0.00 0.00 0.00 0.00 0.00 0.00 0.00 0.00 0.00 0.00 0.00 0.00 0.00 0.00 0.00 0.00 0.00 0.00 0.00 0.00 0.00 0.00 0.00 0.00 0.00 0.00 0.00 0.00 0.00 0.00 0.00 0.00 0.00 0.00 0.00 0.00 0.00 0.00 0.00 0.00 0.00 0.00 0.00 0.00
0.00 0.00 0.00 0.00 0.00 0.00 0.00 0.00 0.00 0.00 0.00 0.00 0.00 0.00 0.00 0.00 0.00 0.00 0.00 0.00 0.00 0.00 0.00 0.00 0.00 0.00 0.00 0.00 0.00 0.00 0.00 0.00 0.00 0.00 0.00 0.00 0.00 0.00 0.00 0.00 0.00 0.00 0.00 0.00
0.00 0.00 0.00 0.00 0.00 0.00 0.00 0.00 0.00 0.00 0.00 0.00 0.00 0.00 0.00 0.00 0.00 0.00 0.00 0.00 0.00 0.00 0.00 0.00 0.00 0.00 0.00 0.00 0.00 0.00 0.00 0.00 0.00 0.00 0.00 0.00 0.00 0.00 0.00 0.00 0.00 0.00 0.00 0.00
0.00 0.00 0.00 0.00 0.00 0.00 0.00 0.00 0.00 0.00 0.00 0.00 0.00 0.00 0.00 0.00 0.00 0.00 0.00 0.00 0.00 0.00 0.00 0.00 0.00 0.00 0.00 0.00 0.00 0.00 0.00 0.00 0.00 0.00 0.00 0.00 0.00 0.00 0.00 0.00 0.00 0.00 0.00 0.00
0.00 0.00 0.00 0.00 0.00 0.00 0.00 0.00 0.00 0.00 0.00 0.00 0.00 0.00 0.00 0.00 0.00 0.00 0.00 0.00 0.00 0.00 0.00 0.00 0.00 0.00 0.00 0.00 0.00 0.00 0.00 0.00 0.00 0.00 0.00 0.00 0.00 0.00 0.00 0.00 0.00 0.00 0.00 0.00
0.00 0.00 0.00 0.00 0.00 0.00 0.00 0.00 0.00 0.00 0.00 0.00 0.00 0.00 0.00 0.00 0.00 0.00 0.00 0.00 0.00 0.00 0.00 0.00 0.00 0.00 0.00 0.00 0.00 0.00 0.00 0.00 0.00 0.00 0.00 0.00 0.00 0.00 0.00 0.00 0.00 0.00 0.00 0.00
0.00 0.00 0.00 0.00 0.00 0.00 0.00 0.00 0.00 0.00 0.00 0.00 0.00 0.00 0.00 0.00 0.00 0.00 0.00 0.00 0.00 0.00 0.00 0.00 0.00 0.00 0.00 0.00 0.00 0.00 0.00 0.00 0.00 0.00 0.00 0.00 0.00 0.00 0.00 0.00 0.00 0.00 0.00 0.00
0.01 0.00 0.00 0.00 0.00 0.00 0.00 0.00 0.00 0.00 0.00 0.00 0.00 0.00 0.00 0.00 0.00 0.00 0.00 0.00 0.00 0.00 0.00 0.00 0.00 0.00 0.00 0.00 0.00 0.00 0.00 0.00 0.00 0.00 0.00 0.00 0.00 0.00 0.00 0.00 0.00 0.00 0.00 0.00
0.01 0.00 0.00 0.00 0.00 0.00 0.00 0.00 0.00 0.00 0.00 0.00 0.00 0.00 0.00 0.00 0.00 0.00 0.00 0.00 0.00 0.00 0.00 0.00 0.00 0.00 0.00 0.00 0.00 0.00 0.00 0.00 0.00 0.00 0.00 0.00 0.00 0.00 0.00 0.00 0.00 0.00 0.00 0.00
0.00 0.00 0.00 0.00 0.00 0.00 0.00 0.00 0.00 0.00 0.00 0.00 0.00 0.00 0.00 0.00 0.00 0.00 0.00 0.00 0.00 0.00 0.00 0.00 0.00 0.00 0.00 0.00 0.00 0.00 0.00 0.00 0.00 0.00 0.00 0.00 0.00 0.00 0.00 0.00 0.00 0.00 0.00 0.00
0.00 0.00 0.00 0.00 0.00 0.00 0.00 0.00 0.00 0.00 0.00 0.00 0.00 0.00 0.00 0.00 0.00 0.00 0.00 0.00 0.00 0.00 0.00 0.00 0.00 0.00 0.00 0.00 0.00 0.00 0.00 0.00 0.00 0.00 0.00 0.00 0.00 0.00 0.00 0.00 0.00 0.00 0.00 0.00
0.00 0.00 0.00 0.00 0.00 0.00 0.00 0.00 0.00 0.00 0.00 0.00 0.00 0.00 0.00 0.00 0.00 0.00 0.00 0.00 0.00 0.00 0.00 0.00 0.00 0.00 0.00 0.00 0.00 0.00 0.00 0.00 0.00 0.00 0.00 0.00 0.00 0.00 0.00 0.00 0.00 0.00 0.00 0.00
0.00 0.00 0.00 0.00 0.00 0.00 0.00 0.00 0.00 0.00 0.00 0.00 0.00 0.00 0.00 0.00 0.00 0.00 0.00 0.00 0.00 0.00 0.00 0.00 0.00 0.00 0.00 0.00 0.00 0.00 0.00 0.00 0.00 0.00 0.00 0.00 0.00 0.00 0.00 0.00 0.00 0.00 0.00 0.00
0.00 0.00 0.00 0.00 0.00 0.00 0.00 0.00 0.00 0.00 0.00 0.00 0.00 0.00 0.00 0.00 0.00 0.00 0.00 0.00 0.00 0.00 0.00 0.00 0.00 0.00 0.00 0.00 0.00 0.00 0.00 0.00 0.00 0.00 0.00 0.00 0.00 0.00 0.00 0.00 0.00 0.00 0.00 0.00
0.00 0.00 0.00 0.00 0.00 0.00 0.00 0.00 0.00 0.00 0.00 0.00 0.00 0.00 0.00 0.00 0.00 0.00 0.00 0.00 0.00 0.00 0.00 0.00 0.00 0.00 0.00 0.00 0.00 0.00 0.00 0.00 0.00 0.00 0.00 0.00 0.00 0.00 0.00 0.00 0.00 0.00 0.00 0.00
0.00 0.00 0.00 0.01 0.01 0.00 0.00 0.00 0.00 0.00 0.00 0.00 0.00 0.00 0.00 0.00 0.00 0.00 0.00 0.00 0.00 0.00 0.00 0.00 0.00 0.00 0.00 0.00 0.00 0.00 0.00 0.00 0.00 0.00 0.00 0.00 0.00 0.00 0.00 0.00 0.00 0.00 0.00 0.00
0.00 0.00 0.01 0.01 0.00 0.00 0.00 0.00 0.00 0.00 0.00 0.00 0.00 0.00 0.00 0.00 0.00 0.00 0.00 0.00 0.00 0.00 0.00 0.00 0.00 0.00 0.00 0.00 0.00 0.00 0.00 0.00 0.00 0.00 0.00 0.00 0.00 0.00 0.00 0.00 0.00 0.00 0.00 0.00
0.00 0.00 0.00 0.00 0.00 0.00 0.00 0.00 0.00 0.00 0.00 0.00 0.00 0.00 0.00 0.00 0.00 0.00 0.00 0.00 0.00 0.00 0.00 0.00 0.00 0.00 0.00 0.00 0.00 0.00 0.00 0.00 0.00 0.00 0.00 0.00 0.00 0.00 0.00 0.00 0.00 0.00 0.00 0.00
0.00 0.00 0.00 0.00 0.00 0.00 0.00 0.00 0.00 0.00 0.00 0.00 0.00 0.00 0.00 0.00 0.00 0.00 0.00 0.00 0.00 0.00 0.00 0.00 0.00 0.00 0.00 0.00 0.00 0.00 0.00 0.00 0.00 0.00 0.00 0.00 0.00 0.00 0.00 0.00 0.00 0.00 0.00 0.00
0.00 0.00 0.00 0.00 0.00 0.00 0.00 0.00 0.00 0.00 0.00 0.00 0.00 0.00 0.00 0.00 0.00 0.00 0.00 0.00 0.00 0.00 0.00 0.00 0.00 0.00 0.00 0.00 0.00 0.00 0.00 0.00 0.00 0.00 0.00 0.00 0.00 0.00 0.00 0.00 0.00 0.00 0.00 0.00
0.00 0.00 0.00 0.00 0.00 0.00 0.00 0.00 0.00 0.00 0.00 0.00 0.00 0.00 0.00 0.00 0.00 0.00 0.00 0.00 0.00 0.00 0.00 0.00 0.00 0.00 0.00 0.00 0.00 0.00 0.00 0.00 0.00 0.00 0.00 0.00 0.00 0.00 0.00 0.00 0.00 0.00 0.00 0.00
MSLP
1006.14 1006.62 1005.76 1004.43 1005.60 1006.17 1006.00 1005.75 1005.22 1004.25 1004.07 1004.57 1005.11 1005.56 1006.09 1006.88 1007.93 1008.11 1008.61 1008.95 1009.23 1009.24 1009.67 1010.31 1010.85 1011.39 1011.91 1012.63 1013.19 1013.73 1014.38 1014.93 1015.64 1016.35 1016.88 1017.39 1017.40 1017.37 1017.56 1017.55 1017.65 1018.09 1018.33 1018.54
1006.07 1004.89 1004.63 1005.61 1005.94 1006.07 1005.93 1005.60 1004.99 1004.26 1003.92 1004.29 1004.77 1005.27 1005.84 1006.66 1006.55 1006.66 1007.71 1008.45 1008.50 1008.89 1009.16 1009.61 1010.15 1010.76 1011.28 1011.85 1012.53 1013.22 1013.71 1014.35 1015.04 1015.70 1016.13 1016.51 1016.73 1017.05 1017.23 1017.27 1017.53 1017.86 1018.17 1018.42
1004.52 1003.69 1004.62 1004.90 1005.09 1005.39 1005.31 1005.11 1004.79 1004.34 1004.01 1003.90 1004.44 1005.49 1006.09 1006.55 1006.87 1006.91 1007.34 1007.43 1007.97 1008.01 1008.29 1008.64 1009.14 1009.60 1010.34 1011.18 1011.73 1012.42 1013.05 1013.70 1014.37 1015.01 1015.75 1016.32 1016.58 1016.83 1017.10 1017.43 1017.62 1017.68 1017.91 1018.14
1004.14 1003.35 1003.50 1003.78 1003.87 1004.23 1004.49 1003.90 1004.39 1004.39 1004.84 1004.69 1004.29 1005.62 1005.87 1005.99 1005.92 1005.87 1005.91 1006.38 1006.93 1007.40 1008.10 1008.41 1008.84 1008.99 1009.29 1010.17 1011.00 1011.67 1012.39 1013.11 1013.76 1014.49 1015.14 1015.59 1016.04 1016.50 1016.66 1016.98 1017.35 1017.56 1017.73 1017.89
1002.85 1002.53 1002.55 1002.73 1002.04 1003.09 1002.59 1003.52 1004.12 1004.29 1004.57 1005.07 1004.67 1005.11 1004.51 1005.00 1005.17 1004.91 1004.51 1004.71 1005.51 1006.23 1006.91 1007.12 1007.42 1008.02 1008.10 1009.13 1010.30 1010.95 1011.73 1012.55 1013.17 1013.96 1014.47 1015.05 1015.64 1015.96 1016.46 1016.83 1017.23 1017.59 1017.64 1017.68
1004.19 1002.68 1001.75 1001.12 1001.90 1002.41 1002.69 1003.41 1004.20 1004.61 1005.18 1004.61 1004.39 1004.57 1003.90 1003.66 1003.26 1003.20 1003.23 1003.68 1004.20 1004.98 1005.52 1006.13 1006.75 1007.79 1007.88 1008.17 1009.35 1010.23 1011.12 1011.84 1012.63 1013.31 1013.96 1014.48 1015.11 1015.80 1016.47 1016.86 1017.24 1017.54 1017.57 1017.66
1005.75 1003.13 1002.41 1001.54 1001.67 1002.11 1002.63 1003.49 1004.93 1005.52 1005.20 1003.64 1003.22 1003.62 1002.47 1001.53 1001.26 1001.23 1001.03 1001.59 1002.38 1003.44 1004.14 1004.84 1005.65 1006.17 1006.77 1007.37 1008.30 1009.36 1010.28 1011.15 1011.96 1012.74 1013.43 1013.98 1014.44 1015.07 1015.67 1016.31 1016.72 1017.23 1017.53 1017.58
1008.93 1005.30 1003.01 1001.68 1001.19 1001.29 1001.78 1002.71 1003.74 1004.23 1004.19 1003.56 1002.76 1001.37 1000.12 999.74 999.59 999.34 999.35 1000.08 1002.26 1003.38 1003.33 1003.57 1003.97 1004.60 1005.43 1006.39 1007.18 1008.35 1009.35 1010.21 1011.23 1011.91 1012.64 1013.32 1013.95 1014.55 1014.97 1015.49 1016.10 1016.55 1016.82 1016.97
1011.21 1008.31 1005.08 1003.55 1001.41 1000.87 1000.77 1001.13 1002.42 1003.33 1004.10 1003.51 1001.73 1000.76 999.47 998.72 998.56 998.66 998.88 1000.10 1000.64 1001.40 1001.95 1002.63 1003.23 1003.57 1004.31 1005.27 1006.05 1007.24 1008.33 1009.17 1010.22 1010.96 1011.84 1012.64 1013.31 1013.88 1014.32 1014.82 1015.45 1015.90 1016.13 1016.34
1013.14 1011.21 1007.26 1004.65 1002.43 1000.45 999.80 1000.82 1002.09 1002.35 1003.10 1002.73 1001.23 1000.11 998.88 998.38 997.99 997.95 998.08 998.67 999.27 999.84 1000.52 1001.51 1002.20 1002.59 1003.17 1003.98 1005.05 1006.17 1007.36 1008.04 1009.06 1009.97 1010.93 1011.75 1012.42 1013.06 1013.66 1014.26 1014.78 1015.20 1015.52 1015.86
1013.89 1012.98 1008.83 1006.95 1003.00 1000.70 1000.12 1000.04 1000.37 1001.28 1001.87 1001.58 1000.84 998.84 997.42 997.15 997.00 997.08 996.95 997.16 997.54 998.42 998.93 999.73 1000.47 1001.21 1002.01 1003.18 1004.37 1005.41 1006.53 1007.44 1008.42 1009.16 1010.05 1010.99 1011.69 1012.31 1013.02 1013.59 1014.09 1014.53 1014.93 1015.30
1014.19 1013.43 1011.07 1007.63 1003.37 1002.90 1002.17 1000.43 1000.44 1000.31 1000.97 1000.88 1000.07 997.67 996.46 996.13 996.00 995.93 995.99 995.97 996.22 996.77 997.27 998.28 999.08 1000.03 1001.09 1002.11 1003.45 1004.49 1005.53 1006.65 1007.36 1008.09 1009.16 1009.97 1010.76 1011.54 1012.23 1012.80 1013.29 1013.79 1014.11 1014.74
1014.79 1013.83 1012.32 1007.86 1005.05 1003.02 1002.42 1000.26 999.70 999.92 999.90 999.67 999.31 996.45 996.19 996.15 995.88 995.80 995.86 995.42 995.50 995.91 996.36 997.08 998.44 999.35 999.91 1000.93 1002.32 1003.53 1004.65 1005.59 1006.49 1007.45 1008.35 1009.22 1009.99 1010.71 1011.30 1011.88 1012.47 1013.01 1013.43 1014.11
1014.90 1014.31 1013.37 1010.90 1008.30 1007.76 1005.30 1002.68 1001.06 999.83 999.78 998.88 996.85 997.57 996.57 995.92 995.88 995.51 994.97 995.09 994.71 994.77 995.17 995.98 996.96 997.93 998.87 999.74 1001.18 1002.51 1003.67 1004.59 1005.61 1006.61 1007.58 1008.47 1009.15 1009.75 1010.41 1011.03 1011.67 1012.08 1012.66 1013.37
1015.24 1014.13 1013.38 1011.99 1009.68 1008.30 1006.21 1004.12 1002.13 1001.31 998.71 997.90 997.32 996.78 996.05 995.76 995.51 995.18 994.81 993.79 993.37 993.13 993.75 994.88 995.59 996.75 998.00 999.17 1000.45 1001.69 1002.69 1003.79 1004.80 1005.78 1006.78 1007.43 1008.25 1008.98 1009.64 1010.17 1010.65 1011.25 1011.86 1012.31
1015.23 1014.17 1013.32 1010.92 1008.41 1006.91 1005.39 1003.31 1001.92 1000.63 999.13 998.06 997.35 996.23 995.17 995.33 995.65 995.75 994.99 993.61 993.07 992.53 992.95 993.72 994.56 995.74 996.94 998.09 999.16 1000.53 1001.85 1002.85 1003.86 1004.89 1005.74 1006.48 1007.42 1008.20 1008.65 1009.17 1009.84 1010.45 1010.92 1011.35
1014.85 1013.77 1013.44 1010.03 1006.57 1005.07 1004.81 1003.37 1001.52 999.60 999.73 999.27 998.63 997.62 996.86 996.64 996.87 996.91 995.61 994.13 993.28 992.42 992.57 992.99 993.83 994.83 995.78 997.01 998.18 999.49 1000.48 1001.85 1002.98 1003.93 1004.90 1005.83 1006.68 1007.37 1007.81 1008.35 1009.05 1009.60 1010.05 1010.59
1013.32 1013.36 1013.17 1010.05 1006.51 1004.54 1003.84 1003.19 1002.13 1000.82 1001.22 1000.68 999.67 998.41 997.73 997.30 997.66 997.22 996.87 995.67 994.57 993.57 992.68 992.50 993.31 994.20 995.14 996.39 997.56 998.97 1000.40 1001.28 1002.43 1003.41 1004.18 1005.04 1005.85 1006.38 1007.18 1007.85 1008.25 1008.78 1009.26 1009.67
1012.83 1013.21 1012.39 1009.88 1006.71 1004.43 1003.89 1004.09 1003.86 1002.59 1002.65 1002.14 1001.01 999.21 998.78 997.34 997.01 998.06 998.35 997.64 996.46 995.23 994.35 994.03 993.92 994.76 995.89 996.80 997.89 999.06 1000.29 1001.18 1002.12 1002.69 1003.26 1004.05 1004.81 1005.50 1006.26 1006.79 1007.19 1007.65 1008.27 1008.65
1012.29 1012.69 1012.26 1009.66 1007.17 1005.70 1005.21 1004.19 1003.03 1002.23 1004.13 1004.21 1003.32 1002.03 1000.67 998.77 1000.29 1001.29 1000.21 998.94 997.65 996.60 996.17 995.76 995.70 996.03 996.57 997.26 997.75 998.98 999.99 1000.65 1001.05 1001.53 1002.16 1003.30 1004.08 1004.69 1005.29 1005.58 1006.12 1006.42 1007.09 1007.40
1012.01 1011.84 1010.91 1009.73 1007.86 1006.44 1005.47 1004.18 1002.44 1003.91 1007.89 1006.66 1005.56 1004.68 1003.41 1002.28 1002.72 1002.50 1001.39 1000.26 999.28 998.24 997.85 997.50 997.08 997.55 997.95 997.87 997.77 998.76 999.54 999.91 1000.20 1001.43 1002.16 1002.85 1003.30 1003.77 1004.44 1004.99 1005.49 1005.91 1006.34 1006.74
1011.49 1011.33 1010.54 1009.34 1007.78 1007.29 1006.17 1004.64 1005.28 1007.60 1007.83 1007.74 1006.94 1006.13 1005.37 1004.57 1003.72 1003.06 1002.43 1001.82 1000.89 999.90 999.26 999.13 998.73 998.81 998.80 998.39 998.51 999.17 999.90 1000.10 1000.30 1000.85 1001.40 1001.94 1002.57 1003.27 1003.87 1004.31 1004.74 1005.19 1005.67 1006.02
1011.99 1011.86 1011.17 1010.50 1009.21 1008.12 1008.02 1008.05 1008.10 1007.81 1008.18 1008.15 1007.61 1006.94 1006.51 1005.55 1004.85 1004.30 1003.86 1003.25 1002.85 1002.03 1001.23 1000.77 1000.43 1000.27 1000.15 999.95 999.87 1000.18 1000.74 1000.56 1000.60 1000.81 1001.26 1001.58 1001.99 1002.35 1002.78 1003.37 1003.91 1004.49 1004.85 1005.12
1012.59 1011.99 1011.48 1010.82 1009.44 1009.05 1008.57 1008.33 1008.49 1008.51 1008.55 1008.48 1008.11 1007.68 1007.07 1006.51 1005.71 1004.93 1004.66 1004.45 1004.03 1003.39 1002.63 1002.11 1001.79 1001.59 1001.53 1001.38 1001.12 1001.03 1001.02 1001.20 1001.10 1001.15 1001.54 1001.77 1001.97 1002.20 1002.50 1002.95 1003.46 1003.83 1004.11 1004.39
1014.24 1013.44 1012.89 1011.78 1010.72 1009.09 1008.08 1008.39 1008.44 1008.51 1008.55 1008.36 1007.97 1007.90 1007.45 1006.94 1006.27 1005.76 1005.29 1005.05 1004.95 1004.66 1003.95 1003.19 1002.99 1002.82 1002.75 1002.51 1002.21 1001.95 1001.82 1001.67 1001.59 1001.57 1001.55 1001.69 1001.88 1002.07 1002.33 1002.87 1003.51 1003.47 1003.09 1003.49
1014.51 1013.83 1013.37 1012.36 1012.01 1011.44 1009.61 1008.53 1008.86 1008.29 1008.84 1008.33 1008.24 1007.45 1007.25 1007.23 1006.62 1005.98 1005.75 1005.61 1005.38 1005.09 1004.59 1004.15 1004.05 1003.79 1003.51 1003.19 1002.77 1002.40 1002.15 1002.00 1001.98 1001.99 1001.86 1001.81 1001.81 1001.81 1002.05 1002.78 1003.67 1003.88 1003.86 1003.73
Thickness
5733 5717 5729 5761 5753 5751 5751 5753 5755 5775 5789 5777 5777 5779 5784 5786 5784 5787 5785 5785 5785 5786 5791 5790 5787 5787 5785 5783 5784 5783 5781 5781 5780 5778 5776 5774 5776 5779 5781 5783 5784 5781 5780 5779
5714 5721 5752 5745 5740 5738 5739 5739 5746 5769 5784 5779 5775 5779 5783 5783 5789 5795 5788 5785 5786 5784 5789 5789 5790 5789 5788 5787 5787 5785 5786 5784 5784 5783 5782 5782 5782 5784 5785 5787 5786 5785 5783 5781
5716 5741 5743 5738 5735 5730 5731 5733 5746 5756 5772 5782 5773 5759 5764 5779 5785 5790 5792 5792 5790 5790 5790 5791 5792 5795 5794 5791 5791 5790 5790 5788 5789 5789 5785 5784 5786 5787 5786 5786 5785 5786 5784 5783
5713 5746 5734 5731 5729 5739 5718 5761 5758 5758 5744 5728 5770 5714 5751 5769 5778 5788 5797 5793 5795 5793 5790 5792 5790 5796 5801 5800 5798 5795 5793 5792 5792 5792 5788 5787 5786 5784 5789 5788 5788 5788 5786 5785
5719 5735 5727 5724 5746 5746 5752 5757 5750 5756 5744 5738 5748 5724 5746 5770 5766 5785 5800 5806 5805 5803 5799 5799 5801 5801 5809 5808 5802 5801 5797 5795 5796 5794 5792 5789 5788 5790 5789 5790 5789 5787 5788 5788
5703 5728 5734 5747 5750 5744 5759 5744 5739 5741 5723 5702 5737 5736 5731 5763 5783 5795 5805 5809 5810 5809 5809 5807 5807 5801 5807 5814 5808 5805 5801 5798 5798 5798 5793 5792 5792 5789 5786 5787 5786 5786 5788 5790
5663 5707 5722 5736 5722 5732 5733 5709 5677 5674 5679 5701 5749 5724 5751 5789 5806 5811 5816 5824 5822 5819 5817 5814 5809 5811 5813 5816 5815 5811 5806 5801 5801 5800 5796 5794 5795 5794 5792 5790 5789 5787 5786 5789
5599 5661 5705 5723 5721 5718 5717 5706 5675 5660 5672 5701 5747 5717 5755 5807 5823 5828 5836 5831 5817 5810 5820 5822 5824 5824 5822 5820 5820 5817 5810 5808 5804 5804 5801 5798 5797 5797 5797 5796 5793 5792 5792 5794
5583 5622 5665 5685 5725 5731 5718 5708 5729 5700 5699 5705 5742 5745 5786 5806 5818 5823 5825 5820 5818 5822 5824 5825 5829 5832 5831 5827 5826 5823 5816 5815 5810 5809 5805 5802 5801 5801 5800 5799 5798 5797 5797 5798
5565 5585 5636 5666 5696 5723 5730 5732 5703 5693 5678 5678 5711 5733 5752 5787 5808 5820 5825 5825 5828 5831 5832 5831 5833 5836 5837 5836 5833 5829 5823 5821 5816 5813 5809 5806 5806 5806 5805 5802 5800 5800 5801 5801
5544 5558 5616 5632 5672 5710 5716 5716 5721 5719 5701 5703 5693 5728 5781 5798 5818 5821 5834 5842 5845 5843 5842 5841 5843 5845 5844 5839 5836 5833 5826 5823 5819 5816 5813 5810 5809 5810 5808 5806 5805 5805 5805 5804
5534 5542 5584 5615 5675 5684 5682 5714 5709 5712 5694 5695 5708 5745 5804 5810 5821 5833 5840 5850 5856 5857 5859 5853 5850 5850 5846 5843 5840 5836 5832 5826 5825 5822 5817 5816 5815 5814 5812 5811 5811 5811 5810 5806
5520 5534 5560 5628 5662 5678 5677 5720 5737 5730 5712 5705 5719 5754 5798 5803 5816 5823 5829 5844 5854 5856 5861 5859 5850 5849 5850 5849 5843 5839 5834 5831 5829 5825 5821 5819 5818 5818 5817 5817 5816 5815 5814 5809
5512 5516 5532 5580 5612 5607 5630 5663 5694 5722 5715 5715 5742 5754 5777 5798 5809 5822 5833 5839 5851 5857 5861 5861 5857 5856 5855 5856 5848 5842 5838 5836 5833 5830 5825 5821 5822 5823 5822 5821 5821 5821 5818 5813
5493 5514 5525 5554 5583 5602 5625 5649 5672 5677 5729 5730 5754 5749 5776 5792 5810 5825 5832 5844 5852 5864 5866 5863 5864 5861 5858 5855 5850 5845 5842 5838 5836 5833 5828 5828 5827 5826 5825 5826 5827 5825 5822 5820
5483 5510 5522 5560 5603 5617 5630 5663 5678 5694 5725 5740 5755 5763 5796 5809 5811 5810 5821 5841 5852 5864 5868 5870 5871 5867 5863 5861 5857 5850 5844 5842 5841 5836 5833 5833 5830 5829 5831 5831 5829 5828 5827 5825
5480 5504 5512 5554 5622 5643 5644 5657 5676 5715 5707 5727 5739 5763 5777 5782 5789 5795 5814 5835 5852 5867 5871 5873 5874 5873 5871 5867 5864 5856 5853 5849 5843 5840 5837 5836 5834 5833 5834 5834 5832 5831 5830 5828
5497 5497 5508 5539 5607 5634 5640 5653 5674 5690 5691 5709 5727 5749 5768 5780 5787 5798 5809 5821 5833 5852 5875 5881 5880 5878 5878 5873 5867 5860 5850 5848 5843 5839 5839 5839 5838 5838 5836 5835 5835 5834 5833 5832
5498 5495 5512 5555 5604 5635 5642 5635 5642 5666 5677 5701 5718 5747 5764 5789 5798 5787 5792 5808 5822 5839 5853 5863 5873 5872 5868 5865 5860 5854 5847 5845 5842 5842 5844 5844 5844 5842 5841 5840 5840 5839 5837 5836
5500 5497 5517 5558 5594 5610 5619 5634 5660 5682 5657 5678 5697 5718 5738 5769 5744 5746 5770 5793 5811 5828 5838 5847 5853 5855 5854 5855 5859 5851 5846 5847 5848 5851 5852 5849 5847 5845 5844 5846 5843 5844 5842 5841
5498 5508 5535 5550 5583 5606 5614 5632 5667 5647 5627 5652 5673 5688 5711 5727 5728 5739 5757 5774 5793 5809 5819 5830 5839 5837 5839 5848 5856 5850 5849 5851 5856 5850 5848 5847 5848 5849 5848 5845 5844 5843 5843 5842
5509 5520 5541 5559 5587 5595 5609 5630 5631 5619 5631 5643 5659 5674 5688 5702 5719 5731 5744 5756 5773 5789 5802 5811 5819 5823 5830 5842 5846 5842 5841 5848 5852 5851 5851 5850 5850 5848 5847 5846 5846 5846 5843 5842
5511 5510 5526 5534 5570 5582 5589 5597 5609 5620 5626 5636 5650 5664 5673 5691 5704 5715 5726 5738 5749 5763 5777 5790 5798 5806 5814 5823 5830 5830 5831 5840 5844 5846 5847 5848 5851 5854 5855 5852 5849 5845 5845 5844
5508 5516 5521 5540 5570 5572 5585 5597 5602 5609 5620 5631 5643 5653 5665 5677 5692 5705 5715 5723 5734 5747 5761 5772 5780 5788 5794 5803 5811 5817 5823 5827 5833 5836 5838 5841 5843 5844 5846 5849 5848 5846 5844 5844
5488 5499 5503 5531 5554 5574 5591 5597 5605 5608 5618 5629 5641 5648 5657 5668 5683 5695 5704 5714 5722 5732 5744 5757 5764 5771 5776 5785 5793 5802 5809 5815 5818 5823 5827 5831 5834 5836 5838 5840 5839 5844 5847 5845
5491 5499 5505 5525 5541 5540 5570 5592 5597 5606 5607 5623 5632 5648 5653 5659 5673 5686 5695 5702 5712 5722 5732 5743 5749 5758 5765 5771 5779 5788 5797 5803 5807 5810 5815 5820 5825 5829 5831 5828 5825 5820 5824 5827